Dewpoint
47 49 52 53 54 55 56 55 53 50 49 52 52 53 51 51 51 51 50 50 51 52 53 53 54 55 55 56 57 57 56 55 52 49 47 45 43 41
44 45 46 48 50 52 54 55 54 53 50 51 52 54 54 52 52 51 52 51 51 52 53 53 53 54 55 55 56 56 55 52 49 47 46 43 41 38
44 43 46 47 48 50 51 52 52 52 50 49 51 53 55 54 52 52 51 51 51 51 52 53 54 54 55 55 55 54 51 49 47 46 44 42 38 38
38 42 44 46 47 48 49 49 49 50 50 48 50 51 52 54 54 52 51 51 51 50 51 52 54 54 54 54 53 51 49 47 46 44 42 39 38 38
39 42 44 45 43 44 46 46 47 48 49 49 48 50 51 52 51 50 50 50 50 50 50 52 53 54 53 53 51 49 47 46 44 42 39 37 36 36
43 44 41 37 38 42 44 44 45 46 47 47 48 47 48 50 50 50 48 44 45 45 47 49 51 53 53 51 49 48 46 44 42 40 37 36 35 34
36 32 34 35 39 43 36 35 41 43 43 44 45 47 48 47 46 47 47 48 44 47 44 45 49 50 50 50 47 45 44 42 41 40 37 34 34 33
27 26 32 32 38 31 31 36 40 41 42 43 43 43 44 46 48 48 48 46 43 43 43 43 45 44 45 46 44 44 42 41 40 37 35 33 33 32
22 22 25 32 32 26 30 34 34 37 40 41 41 41 42 44 48 48 47 47 46 40 41 39 38 39 38 40 42 41 41 39 37 35 33 33 32 32
23 23 29 32 30 31 32 32 33 35 37 39 40 40 41 43 45 45 46 46 38 37 39 36 34 35 34 37 41 40 38 36 35 33 33 32 31 31
23 25 30 30 31 31 31 32 34 35 38 40 41 42 43 43 44 44 42 40 38 33 33 31 30 29 31 32 35 37 36 35 32 31 31 31 31 30
23 26 30 29 29 29 30 32 34 36 38 38 39 41 42 43 41 40 41 40 38 31 31 31 28 28 27 28 30 31 34 31 29 30 30 31 31 30
25 27 27 27 27 29 31 34 35 36 36 35 37 39 41 35 34 34 35 39 37 33 32 31 28 26 26 23 25 26 20 21 24 27 29 30 29 29
27 26 26 27 30 32 32 34 34 34 33 32 33 34 33 32 32 32 32 32 33 33 33 31 27 25 23 22 20 18 17 18 18 18 18 20 25 26
25 27 24 29 27 27 28 31 32 32 31 31 31 32 33 31 29 28 29 28 27 27 27 28 27 26 25 19 17 16 16 18 18 17 18 18 17 19
28 23 26 23 23 24 26 28 30 31 31 31 31 32 31 28 27 27 27 27 25 23 25 26 25 23 19 19 18 18 17 13 19 19 19 19 19 18
20 23 23 22 22 24 25 27 29 30 30 31 30 29 29 26 25 26 26 25 23 22 22 23 24 22 20 19 15 16 17 17 19 19 19 17 17 18
20 21 21 20 22 23 24 26 27 29 30 30 29 28 27 25 24 25 26 25 22 22 21 22 22 17 12 15 21 18 19 18 19 19 19 18 17 17
19 22 20 20 22 23 23 26 26 28 30 29 27 27 26 25 26 24 25 24 23 21 20 20 17 9 -3 -7 10 23 18 19 20 19 19 18 17 17
19 21 19 20 21 23 23 23 25 28 28 28 27 26 25 25 24 24 24 23 21 20 19 16 15 10 5 2 8 11 22 22 18 12 13 17 19 20
20 19 19 19 21 24 21 23 24 27 28 27 26 25 25 25 24 24 25 23 21 19 18 17 17 18 12 13 11 10 13 18 18 15 18 18 19 21
20 19 19 20 24 21 21 22 24 27 27 26 25 25 25 25 24 24 23 22 19 18 17 15 13 15 15 13 10 12 15 17 20 22 23 22 22 20
20 21 19 21 23 21 21 22 24 26 27 25 25 25 25 24 23 22 21 19 17 15 12 12 12 11 13 13 15 16 16 17 19 20 22 25 26 26
Wind_Speed
19 19 20 20 19 19 21 23 27 36 34 25 24 25 24 22 27 25 24 29 34 36 36 38 37 35 33 34 33 34 31 27 25 26 23 21 20 19
19 21 22 19 20 19 19 21 22 28 36 24 26 24 22 19 23 25 26 33 33 36 34 35 36 36 35 33 32 27 25 24 26 26 24 22 21 19
20 22 21 20 20 20 19 20 22 23 29 33 24 26 23 21 22 19 23 24 25 33 37 36 35 36 34 30 32 29 27 27 26 25 25 22 20 20
22 22 22 20 22 22 20 23 23 24 26 33 30 24 25 23 24 25 26 22 23 24 30 35 34 34 32 31 31 29 26 26 25 25 22 19 19 21
23 20 20 19 22 22 23 23 24 25 25 28 32 25 23 21 19 19 20 20 18 26 27 29 31 33 35 35 31 28 26 24 23 22 21 20 19 22
18 17 18 19 22 24 24 23 24 26 26 27 27 27 23 20 14 20 19 13 19 10 17 21 24 29 30 28 26 25 23 22 23 24 21 22 21 21
16 16 16 19 24 23 24 27 27 25 25 25 27 27 25 19 18 15 19 15 16 19 18 15 16 21 26 28 25 27 22 24 23 20 23 21 21 21
21 23 22 23 20 28 28 28 28 29 27 23 26 26 29 25 21 19 21 17 15 13 16 20 15 15 14 16 25 26 25 21 20 21 24 21 22 23
23 25 27 22 22 28 30 31 30 31 28 27 28 29 28 27 25 23 20 23 26 8 16 15 13 15 12 14 25 22 21 21 22 23 23 23 23 20
20 23 25 20 24 29 30 31 32 31 28 24 26 30 29 28 27 27 27 22 5 5 10 13 11 11 12 13 22 20 20 21 24 25 26 24 21 19
24 25 24 26 26 33 30 31 35 35 29 31 30 33 36 36 33 27 23 18 14 8 9 8 7 6 7 10 12 19 20 23 26 24 24 22 21 19
23 23 26 29 35 37 32 31 32 31 32 32 29 28 27 25 19 18 22 21 14 9 10 13 8 8 6 3 7 7 13 23 22 22 21 21 19 13
22 22 22 33 39 41 37 27 25 35 31 26 26 23 17 15 13 11 10 13 12 7 10 11 8 7 6 6 4 8 10 5 4 11 16 17 19 17
23 23 25 36 40 36 29 30 34 33 22 24 23 21 19 17 12 6 3 6 5 5 17 9 8 9 9 6 7 6 6 6 7 7 6 5 8 14
22 29 36 36 30 26 29 34 30 21 22 23 22 22 18 10 2 2 9 14 17 15 14 10 15 15 9 8 9 7 9 6 7 8 8 10 11 8
25 24 28 28 28 28 26 23 19 20 22 23 20 22 14 5 2 2 3 8 13 14 18 16 14 9 7 9 7 11 8 7 7 9 7 6 7 8
32 21 21 22 23 22 22 23 22 22 22 20 20 19 13 3 2 3 3 5 7 7 12 11 9 10 9 9 7 8 8 5 6 8 5 6 9 11
23 19 21 22 23 24 25 25 25 25 23 23 20 16 11 6 6 3 4 7 11 10 10 5 4 4 3 3 1 7 6 5 6 8 8 8 10 10
19 18 21 23 24 24 25 24 29 25 23 19 17 15 8 6 6 6 6 7 8 9 7 5 4 3 4 3 2 7 5 6 6 6 8 10 8 6
17 19 22 23 24 23 24 27 28 24 22 19 15 11 5 3 6 8 7 7 11 8 7 5 5 4 4 3 0 2 11 10 7 7 6 6 9 11
18 21 21 22 23 21 26 25 27 24 24 18 12 6 1 5 6 6 7 9 9 6 8 6 3 4 7 3 1 3 3 8 12 9 4 6 5 3
19 21 23 21 21 24 25 25 26 23 21 15 10 4 2 4 5 6 7 8 6 6 6 5 3 3 1 1 4 4 7 8 9 13 16 15 6 4
20 21 22 22 21 25 24 24 25 22 18 12 7 3 3 5 7 8 9 8 8 9 6 4 2 1 2 3 5 8 10 10 3 5 3 13 19 21
Wind_Direction
301 297 296 296 291 282 275 272 274 286 284 277 267 253 246 236 233 235 232 239 237 243 242 243 242 238 236 235 232 224 218 206 210 214 214 214 222 234
308 305 301 299 298 294 285 281 278 279 285 281 277 268 258 238 240 232 230 237 236 237 240 237 235 236 230 228 229 211 202 201 210 212 212 217 223 229
316 311 304 305 304 303 299 294 290 288 286 292 285 281 264 253 249 239 237 237 240 235 234 233 229 229 228 216 197 195 195 199 206 210 214 217 223 224
314 309 309 316 314 310 306 301 299 296 290 291 293 287 276 261 249 244 237 235 237 242 235 232 226 224 223 205 188 190 194 199 201 211 211 215 223 229
307 305 309 316 313 311 309 308 306 300 293 289 289 290 283 274 260 249 251 244 234 235 234 232 228 220 216 203 195 185 188 189 197 205 204 208 220 228
303 301 306 314 313 312 307 307 306 299 298 295 287 287 288 289 257 263 261 243 251 257 266 248 225 220 217 192 183 188 181 186 201 195 206 206 208 224
303 301 307 310 306 303 320 313 312 314 308 306 301 300 279 284 282 272 253 260 233 237 238 236 220 204 191 194 181 174 180 185 194 201 212 207 207 219
321 325 319 318 311 326 316 311 312 309 304 306 301 296 295 292 289 289 274 254 250 209 222 237 209 203 190 193 176 170 175 194 193 210 216 210 210 215
324 325 318 315 328 323 316 314 315 309 302 299 296 291 297 300 299 286 290 268 259 214 192 223 187 195 176 169 166 171 184 196 202 211 211 212 211 215
320 320 313 318 322 318 317 316 312 308 302 291 281 285 285 288 287 289 287 287 270 191 171 196 185 194 169 168 176 180 195 203 208 207 209 206 211 218
322 317 311 314 313 319 316 311 305 303 300 291 281 280 278 279 278 278 276 253 245 225 181 155 170 139 151 161 171 190 200 212 211 206 205 208 211 215
313 313 314 316 316 316 314 305 300 309 317 316 308 294 284 281 286 277 267 253 232 219 197 163 148 149 151 109 153 198 211 215 206 209 209 212 206 209
320 317 314 314 314 311 306 301 315 314 312 313 307 306 301 294 284 280 274 256 219 227 189 152 154 134 87 122 123 188 204 190 180 209 205 199 208 208
319 315 311 313 309 307 313 318 318 319 308 309 306 309 305 298 287 294 359 52 52 164 157 133 134 133 123 123 149 156 148 145 144 151 163 183 218 225
319 315 322 316 320 320 320 320 320 314 308 308 309 308 301 298 315 349 67 78 76 72 71 73 118 122 126 143 148 153 144 178 177 177 182 191 199 203
321 324 320 325 323 316 315 315 316 313 310 308 305 303 296 289 270 27 97 91 87 67 62 62 84 107 121 115 120 146 147 155 176 190 185 188 203 208
331 326 325 327 320 318 317 319 319 318 319 316 309 301 293 257 184 155 123 51 97 102 90 78 75 74 81 135 125 151 165 176 184 164 185 229 233 224
332 321 325 321 318 319 321 319 320 322 318 317 311 298 285 227 197 164 101 109 125 122 114 114 109 80 66 46 161 144 159 184 199 203 204 218 256 246
324 320 322 320 317 319 322 317 319 319 315 313 310 304 278 217 195 143 129 125 117 113 120 116 109 87 94 98 6 195 165 188 186 207 219 218 231 230
321 323 321 319 318 317 321 319 314 318 319 318 315 306 276 219 146 149 153 130 121 125 122 86 92 86 84 120 150 225 221 233 235 255 252 243 249 252
323 323 319 317 315 315 318 313 313 316 322 322 320 312 272 149 134 127 134 130 132 115 113 99 89 121 112 102 317 309 296 236 234 223 190 225 256 254
318 318 318 317 315 320 315 313 315 319 323 319 319 311 104 119 125 118 113 117 102 113 120 125 92 92 113 235 299 286 289 299 291 265 234 214 199 199
314 315 317 314 318 318 314 313 316 318 320 314 319 0 70 84 96 98 94 105 112 92 69 58 20 35 312 262 285 297 293 296 283 318 279 229 228 227